����������;��������(kWh)
2015-11-09 00:00;69,25
2015-11-09 00:15;70,65
2015-11-09 00:30;71,05
2015-11-09 00:45;69,9
2015-11-09 01:00;69,7
2015-11-09 01:15;69,3
2015-11-09 01:30;69,75
2015-11-09 01:45;70,25
2015-11-09 02:00;69,4
2015-11-09 02:15;69,15
2015-11-09 02:30;73,35
2015-11-09 02:45;75,95
2015-11-09 03:00;75,85
2015-11-09 03:15;75,95
2015-11-09 03:30;75,8
2015-11-09 03:45;77,15
2015-11-09 04:00;72,55
2015-11-09 04:15;69,65
2015-11-09 04:30;67,5
2015-11-09 04:45;67,9
2015-11-09 05:00;67,5
2015-11-09 05:15;67,1
2015-11-09 05:30;67,7
2015-11-09 05:45;66,55
2015-11-09 06:00;68,05
2015-11-09 06:15;72,8
2015-11-09 06:30;75,05
2015-11-09 06:45;77,6
2015-11-09 07:00;73,1
2015-11-09 07:15;74,75
2015-11-09 07:30;75,2
2015-11-09 07:45;80,55
2015-11-09 08:00;83,25
2015-11-09 08:15;84,1
2015-11-09 08:30;85,55
2015-11-09 08:45;95,35
2015-11-09 09:00;102,1
2015-11-09 09:15;111,6
2015-11-09 09:30;113,2
2015-11-09 09:45;111,45
2015-11-09 10:00;113,65
2015-11-09 10:15;117,25
2015-11-09 10:30;123,4
2015-11-09 10:45;122,8
2015-11-09 11:00;124,85
2015-11-09 11:15;127,5
2015-11-09 11:30;132,2
2015-11-09 11:45;129,45
2015-11-09 12:00;126,7
2015-11-09 12:15;127,15
2015-11-09 12:30;131,5
2015-11-09 12:45;133,95
2015-11-09 13:00;136,25
2015-11-09 13:15;134,15
2015-11-09 13:30;137,8
2015-11-09 13:45;135,4
2015-11-09 14:00;133,3
2015-11-09 14:15;134,6
2015-11-09 14:30;140,5
2015-11-09 14:45;137,55
2015-11-09 15:00;141,55
2015-11-09 15:15;140,45
2015-11-09 15:30;132,3
2015-11-09 15:45;137,3
2015-11-09 16:00;122,9
2015-11-09 16:15;116,8
2015-11-09 16:30;119,35
2015-11-09 16:45;117,8
2015-11-09 17:00;115,75
2015-11-09 17:15;113,85
2015-11-09 17:30;119,35
2015-11-09 17:45;120,65
2015-11-09 18:00;120,85
2015-11-09 18:15;118
2015-11-09 18:30;118,5
2015-11-09 18:45;119,45
2015-11-09 19:00;115,35
2015-11-09 19:15;113,1
2015-11-09 19:30;112,35
2015-11-09 19:45;110,1
2015-11-09 20:00;106,3
2015-11-09 20:15;103,05
2015-11-09 20:30;103,35
2015-11-09 20:45;109,75
2015-11-09 21:00;102,65
2015-11-09 21:15;99,65
2015-11-09 21:30;96,8
2015-11-09 21:45;98,8
2015-11-09 22:00;95
2015-11-09 22:15;92,25
2015-11-09 22:30;86,35
2015-11-09 22:45;79,9
2015-11-09 23:00;76,25
2015-11-09 23:15;77,2
2015-11-09 23:30;72,7
2015-11-09 23:45;74,25
2015-11-10 00:00;75,05
2015-11-10 00:15;74,55
2015-11-10 00:30;70,2
2015-11-10 00:45;72,35
2015-11-10 01:00;72,55
2015-11-10 01:15;72,95
2015-11-10 01:30;71,9
2015-11-10 01:45;72,65
2015-11-10 02:00;70,75
2015-11-10 02:15;70,65
2015-11-10 02:30;71,9
2015-11-10 02:45;72,3
2015-11-10 03:00;72
2015-11-10 03:15;71,7
2015-11-10 03:30;68,4
2015-11-10 03:45;69,7
2015-11-10 04:00;70,75
2015-11-10 04:15;69,3
2015-11-10 04:30;68,85
2015-11-10 04:45;68,15
2015-11-10 05:00;70
2015-11-10 05:15;70,5
2015-11-10 05:30;69,35
2015-11-10 05:45;70,5
2015-11-10 06:00;74,35
2015-11-10 06:15;72,15
2015-11-10 06:30;77,75
2015-11-10 06:45;79,6
2015-11-10 07:00;76,55
2015-11-10 07:15;75,65
2015-11-10 07:30;73,45
2015-11-10 07:45;80,85
2015-11-10 08:00;85
2015-11-10 08:15;84,75
2015-11-10 08:30;88,05
2015-11-10 08:45;96,65
2015-11-10 09:00;96,7
2015-11-10 09:15;106,45
2015-11-10 09:30;114,2
2015-11-10 09:45;113,3
2015-11-10 10:00;113,45
2015-11-10 10:15;121,75
2015-11-10 10:30;130
2015-11-10 10:45;131,25
2015-11-10 11:00;135,35
2015-11-10 11:15;147,45
2015-11-10 11:30;146,7
2015-11-10 11:45;138,9
2015-11-10 12:00;141,7
2015-11-10 12:15;142,3
2015-11-10 12:30;142,9
2015-11-10 12:45;143,75
2015-11-10 13:00;140,1
2015-11-10 13:15;141,5
2015-11-10 13:30;142,3
2015-11-10 13:45;139,45
2015-11-10 14:00;141,3
2015-11-10 14:15;138,75
2015-11-10 14:30;141,45
2015-11-10 14:45;138,5
2015-11-10 15:00;135,25
2015-11-10 15:15;135,2
2015-11-10 15:30;132,75
2015-11-10 15:45;125,45
2015-11-10 16:00;119,65
2015-11-10 16:15;117,6
2015-11-10 16:30;117,5
2015-11-10 16:45;113,3
2015-11-10 17:00;115,75
2015-11-10 17:15;108,05
2015-11-10 17:30;116
2015-11-10 17:45;121,9
2015-11-10 18:00;119,65
2015-11-10 18:15;120,4
2015-11-10 18:30;115,35
2015-11-10 18:45;116,25
2015-11-10 19:00;119,05
2015-11-10 19:15;114,3
2015-11-10 19:30;113,45
2015-11-10 19:45;112,45
2015-11-10 20:00;115
2015-11-10 20:15;110,55
2015-11-10 20:30;111,45
2015-11-10 20:45;110,9
2015-11-10 21:00;104,5
2015-11-10 21:15;98,1
2015-11-10 21:30;95,5
2015-11-10 21:45;94,1
2015-11-10 22:00;87,1
2015-11-10 22:15;83,25
2015-11-10 22:30;83,65
2015-11-10 22:45;81,45
2015-11-10 23:00;76,05
2015-11-10 23:15;76,2
2015-11-10 23:30;76,5
2015-11-10 23:45;75,55
2015-11-11 00:00;72,45
2015-11-11 00:15;74,95
2015-11-11 00:30;81,6
2015-11-11 00:45;80,8
2015-11-11 01:00;79,25
2015-11-11 01:15;80
2015-11-11 01:30;77,4
2015-11-11 01:45;73,5
2015-11-11 02:00;73,5
2015-11-11 02:15;71,5
2015-11-11 02:30;72,9
2015-11-11 02:45;71,7
2015-11-11 03:00;72,3
2015-11-11 03:15;72,6
2015-11-11 03:30;71,2
2015-11-11 03:45;70,3
2015-11-11 04:00;73,05
2015-11-11 04:15;72,95
2015-11-11 04:30;71,5
2015-11-11 04:45;68,4
2015-11-11 05:00;71,5
2015-11-11 05:15;72,2
2015-11-11 05:30;71
2015-11-11 05:45;68,3
2015-11-11 06:00;68,85
2015-11-11 06:15;75,15
2015-11-11 06:30;72,3
2015-11-11 06:45;79,5
2015-11-11 07:00;76,25
2015-11-11 07:15;76,05
2015-11-11 07:30;76,45
2015-11-11 07:45;79,65
2015-11-11 08:00;86,6
2015-11-11 08:15;83,9
2015-11-11 08:30;92,9
2015-11-11 08:45;103,7
2015-11-11 09:00;106,25
2015-11-11 09:15;112,65
2015-11-11 09:30;113,2
2015-11-11 09:45;107,7
2015-11-11 10:00;111,3
2015-11-11 10:15;113,7
2015-11-11 10:30;119,95
2015-11-11 10:45;130,65
2015-11-11 11:00;132,2
2015-11-11 11:15;123,6
2015-11-11 11:30;126,2
2015-11-11 11:45;121,3
2015-11-11 12:00;126,1
2015-11-11 12:15;130,75
2015-11-11 12:30;129,3
2015-11-11 12:45;136,45
2015-11-11 13:00;142,15
2015-11-11 13:15;138,65
2015-11-11 13:30;140,3
2015-11-11 13:45;138,5
2015-11-11 14:00;131,6
2015-11-11 14:15;134,15
2015-11-11 14:30;134,85
2015-11-11 14:45;126,8
2015-11-11 15:00;125,55
2015-11-11 15:15;121,25
2015-11-11 15:30;126,5
2015-11-11 15:45;124,35
2015-11-11 16:00;122,2
2015-11-11 16:15;117,05
2015-11-11 16:30;120
2015-11-11 16:45;121,1
2015-11-11 17:00;117,95
2015-11-11 17:15;113,35
2015-11-11 17:30;122,75
2015-11-11 17:45;129
2015-11-11 18:00;120,55
2015-11-11 18:15;116
2015-11-11 18:30;118,25
2015-11-11 18:45;121
2015-11-11 19:00;122,85
2015-11-11 19:15;120,15
2015-11-11 19:30;114,3
2015-11-11 19:45;106,65
2015-11-11 20:00;105,9
2015-11-11 20:15;107,65
2015-11-11 20:30;100,7
2015-11-11 20:45;96,7
2015-11-11 21:00;98,05
2015-11-11 21:15;96,8
2015-11-11 21:30;93,95
2015-11-11 21:45;88,35
2015-11-11 22:00;83,7
2015-11-11 22:15;84,4
2015-11-11 22:30;84,5
2015-11-11 22:45;79,25
2015-11-11 23:00;79,55
2015-11-11 23:15;79,6
2015-11-11 23:30;82,3
2015-11-11 23:45;83,6
2015-11-12 00:00;81,95
2015-11-12 00:15;83,85
2015-11-12 00:30;83,95
2015-11-12 00:45;75,55
2015-11-12 01:00;73,8
2015-11-12 01:15;76,45
2015-11-12 01:30;76
2015-11-12 01:45;76,75
2015-11-12 02:00;71,9
2015-11-12 02:15;73,7
2015-11-12 02:30;74,1
2015-11-12 02:45;74,2
2015-11-12 03:00;73,5
2015-11-12 03:15;74,4
2015-11-12 03:30;73,7
2015-11-12 03:45;72,4
2015-11-12 04:00;74,2
2015-11-12 04:15;72,65
2015-11-12 04:30;72,9
2015-11-12 04:45;73,85
2015-11-12 05:00;73,5
2015-11-12 05:15;73,6
2015-11-12 05:30;75,25
2015-11-12 05:45;72,25
2015-11-12 06:00;71,5
2015-11-12 06:15;77,8
2015-11-12 06:30;76,35
2015-11-12 06:45;78,45
2015-11-12 07:00;74
2015-11-12 07:15;80,7
2015-11-12 07:30;76,4
2015-11-12 07:45;81,25
2015-11-12 08:00;79,3
2015-11-12 08:15;78,25
2015-11-12 08:30;80,8
2015-11-12 08:45;78,45
2015-11-12 09:00;81,1
2015-11-12 09:15;77,7
2015-11-12 09:30;77,6
2015-11-12 09:45;76,05
2015-11-12 10:00;73,9
2015-11-12 10:15;72,7
2015-11-12 10:30;71,5
2015-11-12 10:45;72,65
2015-11-12 11:00;72,85
2015-11-12 11:15;78
2015-11-12 11:30;84,6
2015-11-12 11:45;82,05
2015-11-12 12:00;78,1
2015-11-12 12:15;81,8
2015-11-12 12:30;77,85
2015-11-12 12:45;74,9
2015-11-12 13:00;75,85
2015-11-12 13:15;74,45
2015-11-12 13:30;72,65
2015-11-12 13:45;74,75
2015-11-12 14:00;71,1
2015-11-12 14:15;72,4
2015-11-12 14:30;78,1
2015-11-12 14:45;80,55
2015-11-12 15:00;81,95
2015-11-12 15:15;78,4
2015-11-12 15:30;79,35
2015-11-12 15:45;78,15
2015-11-12 16:00;76,65
2015-11-12 16:15;73,9
2015-11-12 16:30;75,35
2015-11-12 16:45;81,4
2015-11-12 17:00;77,9
2015-11-12 17:15;77,55
2015-11-12 17:30;76,85
2015-11-12 17:45;84,1
2015-11-12 18:00;85,2
2015-11-12 18:15;86,45
2015-11-12 18:30;82,15
2015-11-12 18:45;83,25
2015-11-12 19:00;83,25
2015-11-12 19:15;86
2015-11-12 19:30;86,9
2015-11-12 19:45;82
2015-11-12 20:00;86,4
2015-11-12 20:15;83,65
2015-11-12 20:30;87,7
2015-11-12 20:45;85,1
2015-11-12 21:00;87,15
2015-11-12 21:15;89,25
2015-11-12 21:30;92,2
2015-11-12 21:45;80,9
2015-11-12 22:00;79,45
2015-11-12 22:15;75,95
2015-11-12 22:30;76,25
2015-11-12 22:45;74,75
2015-11-12 23:00;76,1
2015-11-12 23:15;75,5
2015-11-12 23:30;74,15
2015-11-12 23:45;73,4
2015-11-13 00:00;78,15
2015-11-13 00:15;78,9
2015-11-13 00:30;78,85
2015-11-13 00:45;79,7
2015-11-13 01:00;73
2015-11-13 01:15;72,8
2015-11-13 01:30;72,2
2015-11-13 01:45;73,05
2015-11-13 02:00;72,15
2015-11-13 02:15;72,95
2015-11-13 02:30;73,6
2015-11-13 02:45;72,5
2015-11-13 03:00;71,2
2015-11-13 03:15;73,15
2015-11-13 03:30;71,9
2015-11-13 03:45;71,55
2015-11-13 04:00;71,05
2015-11-13 04:15;69,6
2015-11-13 04:30;71,2
2015-11-13 04:45;71,15
2015-11-13 05:00;73,15
2015-11-13 05:15;73,05
2015-11-13 05:30;75,75
2015-11-13 05:45;72,7
2015-11-13 06:00;74,7
2015-11-13 06:15;75,9
2015-11-13 06:30;74,85
2015-11-13 06:45;79,75
2015-11-13 07:00;73,55
2015-11-13 07:15;79
2015-11-13 07:30;74,45
2015-11-13 07:45;79,15
2015-11-13 08:00;84,25
2015-11-13 08:15;95,1
2015-11-13 08:30;93,7
2015-11-13 08:45;95,2
2015-11-13 09:00;95,5
2015-11-13 09:15;108,85
2015-11-13 09:30;110,15
2015-11-13 09:45;110,4
2015-11-13 10:00;115
2015-11-13 10:15;111,45
2015-11-13 10:30;117,85
2015-11-13 10:45;118,7
2015-11-13 11:00;115,3
2015-11-13 11:15;123,2
2015-11-13 11:30;122,3
2015-11-13 11:45;120
2015-11-13 12:00;118,75
2015-11-13 12:15;117,85
2015-11-13 12:30;121,1
2015-11-13 12:45;123,15
2015-11-13 13:00;125,05
2015-11-13 13:15;126,25
2015-11-13 13:30;125,9
2015-11-13 13:45;125,4
2015-11-13 14:00;124,8
2015-11-13 14:15;122,5
2015-11-13 14:30;124,45
2015-11-13 14:45;127,4
2015-11-13 15:00;128,3
2015-11-13 15:15;122,7
2015-11-13 15:30;120,9
2015-11-13 15:45;118,9
2015-11-13 16:00;112,9
2015-11-13 16:15;109,8
2015-11-13 16:30;109,2
2015-11-13 16:45;110,8
2015-11-13 17:00;104,65
2015-11-13 17:15;108,95
2015-11-13 17:30;103,9
2015-11-13 17:45;117,6
2015-11-13 18:00;112,9
2015-11-13 18:15;113,7
2015-11-13 18:30;108,3
2015-11-13 18:45;107,15
2015-11-13 19:00;109,3
2015-11-13 19:15;110,7
2015-11-13 19:30;106,45
2015-11-13 19:45;106,95
2015-11-13 20:00;105,35
2015-11-13 20:15;103,4
2015-11-13 20:30;95,9
2015-11-13 20:45;92,05
2015-11-13 21:00;91,6
2015-11-13 21:15;89,1
2015-11-13 21:30;85,2
2015-11-13 21:45;83,25
2015-11-13 22:00;80,4
2015-11-13 22:15;77,7
2015-11-13 22:30;76,1
2015-11-13 22:45;75,45
2015-11-13 23:00;74,75
2015-11-13 23:15;74,6
2015-11-13 23:30;69,55
2015-11-13 23:45;71,35
2015-11-14 00:00;76,65
2015-11-14 00:15;78,55
2015-11-14 00:30;77,8
2015-11-14 00:45;76,25
2015-11-14 01:00;78,2
2015-11-14 01:15;78,1
2015-11-14 01:30;70,55
2015-11-14 01:45;68,1
2015-11-14 02:00;69,45
2015-11-14 02:15;69,2
2015-11-14 02:30;69,05
2015-11-14 02:45;67,9
2015-11-14 03:00;68,2
2015-11-14 03:15;69
2015-11-14 03:30;68,95
2015-11-14 03:45;67,75
2015-11-14 04:00;67,2
2015-11-14 04:15;67,7
2015-11-14 04:30;67,9
2015-11-14 04:45;68,3
2015-11-14 05:00;70,45
2015-11-14 05:15;72,65
2015-11-14 05:30;75,25
2015-11-14 05:45;73,4
2015-11-14 06:00;74,7
2015-11-14 06:15;74,9
2015-11-14 06:30;72,65
2015-11-14 06:45;70,65
2015-11-14 07:00;67,05
2015-11-14 07:15;68,8
2015-11-14 07:30;65,15
2015-11-14 07:45;63,25
2015-11-14 08:00;64,25
2015-11-14 08:15;64,7
2015-11-14 08:30;67,55
2015-11-14 08:45;72,8
2015-11-14 09:00;78,2
2015-11-14 09:15;77,75
2015-11-14 09:30;71,25
2015-11-14 09:45;71,55
2015-11-14 10:00;72,8
2015-11-14 10:15;73,65
2015-11-14 10:30;75,3
2015-11-14 10:45;72,8
2015-11-14 11:00;73,75
2015-11-14 11:15;79,35
2015-11-14 11:30;75,6
2015-11-14 11:45;73,75
2015-11-14 12:00;79,15
2015-11-14 12:15;72,3
2015-11-14 12:30;72,05
2015-11-14 12:45;72,85
2015-11-14 13:00;70,6
2015-11-14 13:15;73,45
2015-11-14 13:30;74,95
2015-11-14 13:45;76,35
2015-11-14 14:00;78,75
2015-11-14 14:15;79,55
2015-11-14 14:30;76,65
2015-11-14 14:45;77,65
2015-11-14 15:00;77,75
2015-11-14 15:15;76,05
2015-11-14 15:30;73,2
2015-11-14 15:45;72,75
2015-11-14 16:00;73,15
2015-11-14 16:15;73,85
2015-11-14 16:30;77,35
2015-11-14 16:45;74,85
2015-11-14 17:00;74,9
2015-11-14 17:15;76,75
2015-11-14 17:30;76,35
2015-11-14 17:45;86,2
2015-11-14 18:00;85,6
2015-11-14 18:15;84,2
2015-11-14 18:30;82,3
2015-11-14 18:45;81,5
2015-11-14 19:00;85,4
2015-11-14 19:15;82,05
2015-11-14 19:30;80,8
2015-11-14 19:45;83,4
2015-11-14 20:00;80,45
2015-11-14 20:15;85,4
2015-11-14 20:30;85,05
2015-11-14 20:45;87,75
2015-11-14 21:00;90,35
2015-11-14 21:15;88,9
2015-11-14 21:30;85,6
2015-11-14 21:45;85,3
2015-11-14 22:00;80,25
2015-11-14 22:15;73,75
2015-11-14 22:30;72,85
2015-11-14 22:45;70,95
2015-11-14 23:00;71,85
2015-11-14 23:15;71,55
2015-11-14 23:30;69,95
2015-11-14 23:45;69
2015-11-15 00:00;69,4
2015-11-15 00:15;68,4
2015-11-15 00:30;68,5
2015-11-15 00:45;66,5
2015-11-15 01:00;68,1
2015-11-15 01:15;68,05
2015-11-15 01:30;67,8
2015-11-15 01:45;66,3
2015-11-15 02:00;69,05
2015-11-15 02:15;67,4
2015-11-15 02:30;66,55
2015-11-15 02:45;66,45
2015-11-15 03:00;67,3
2015-11-15 03:15;68,7
2015-11-15 03:30;66,3
2015-11-15 03:45;65,6
2015-11-15 04:00;67
2015-11-15 04:15;67
2015-11-15 04:30;64,75
2015-11-15 04:45;67,3
2015-11-15 05:00;69,9
2015-11-15 05:15;70,25
2015-11-15 05:30;68,75
2015-11-15 05:45;68,2
2015-11-15 06:00;73,2
2015-11-15 06:15;71,35
2015-11-15 06:30;70,15
2015-11-15 06:45;74,85
2015-11-15 07:00;71,8
2015-11-15 07:15;77,4
2015-11-15 07:30;69,5
2015-11-15 07:45;72,65
2015-11-15 08:00;74,35
2015-11-15 08:15;73,75
2015-11-15 08:30;67,35
2015-11-15 08:45;72
2015-11-15 09:00;66,65
2015-11-15 09:15;63,35
2015-11-15 09:30;60,45
2015-11-15 09:45;62,7
2015-11-15 10:00;61,75
2015-11-15 10:15;60,3
2015-11-15 10:30;61,9
2015-11-15 10:45;63,5
2015-11-15 11:00;62,6
2015-11-15 11:15;72,5
2015-11-15 11:30;71,75
2015-11-15 11:45;68,75
2015-11-15 12:00;68,95
2015-11-15 12:15;74,85
2015-11-15 12:30;78,4
2015-11-15 12:45;71,95
2015-11-15 13:00;72,15
2015-11-15 13:15;74,05
2015-11-15 13:30;64,9
2015-11-15 13:45;68,25
2015-11-15 14:00;67,8
2015-11-15 14:15;71,7
2015-11-15 14:30;69,6
2015-11-15 14:45;70,15
2015-11-15 15:00;74,95
2015-11-15 15:15;69,6
2015-11-15 15:30;73,4
2015-11-15 15:45;76,8
2015-11-15 16:00;71,8
2015-11-15 16:15;73,6
2015-11-15 16:30;71
2015-11-15 16:45;70,4
2015-11-15 17:00;70,5
2015-11-15 17:15;78,4
2015-11-15 17:30;78,15
2015-11-15 17:45;84,65
2015-11-15 18:00;77,95
2015-11-15 18:15;83,35
2015-11-15 18:30;82,3
2015-11-15 18:45;88,9
2015-11-15 19:00;84,15
2015-11-15 19:15;88,25
2015-11-15 19:30;93,3
2015-11-15 19:45;81,8
2015-11-15 20:00;76,35
2015-11-15 20:15;76,95
2015-11-15 20:30;80,15
2015-11-15 20:45;78,6
2015-11-15 21:00;77,5
2015-11-15 21:15;78,35
2015-11-15 21:30;81,3
2015-11-15 21:45;80,65
2015-11-15 22:00;73,3
2015-11-15 22:15;75,45
2015-11-15 22:30;73,85
2015-11-15 22:45;73,4
2015-11-15 23:00;73,25
2015-11-15 23:15;73,8
2015-11-15 23:30;72,8
2015-11-15 23:45;76,25

